Regional Weather Roundup
Issued by NWS Kansas City/Pleasant Hill, MO

Home | Current Version | Previous Version | Graphics & Text | Print | Product List | Glossary Off
Versions: 1 2 3 4 5 6 7 8 9 10 11 12 13 14 15 16 17 18 19 20 21 22 23 24 25 26 27 28 29 30 31 32 33 34 35 36 37 38 39 40 41 42 43 44 45 46 47 48 49 50

127
ASUS43 KEAX 161310
RWREAX

WEATHER ROUNDUP FOR EASTERN KANSAS AND NORTHWEST MISSOURI
NATIONAL WEATHER SERVICE KANSAS CITY/PLEASANT HILL MO
700 AM CST MON JAN 16 2017

KSZ040-057-103>105-MOZ028-029-037-043-161400-
...KANSAS CITY METROPOLITAN AREA...

CITY           SKY/WX    TMP DP  RH WIND       PRES   REMARKS
K.C. INTL      LGT RAIN  35  33  92 E12       29.92F WCI  27
K.C. DOWNTOWN  CLOUDY    35  32  88 E10       29.92F WCI  27
LEES SUMMIT    CLOUDY    36  32  85 E12       29.91F WCI  28
OLATHE - IXD   CLOUDY    39  39 100 E9        29.89F WCI  33
OLATHE - OJC   CLOUDY    37  37 100 E12       29.89F FOG     WCI  29
LAWRENCE       CLOUDY    35  35 100 NE10      29.89F WCI  27

$$

MOZ001>008-011>017-020>025-030>033-038>040-044>046-053-054-161400-
...NORTHERN AND CENTRAL MISSOURI...

CITY           SKY/WX    TMP DP  RH WIND       PRES   REMARKS
ST. JOSEPH     LGT RAIN  33  33 100 E7        29.96F WCI  27
WARRENSBURG    CLOUDY    39  37  93 NE5       29.94S FOG
WHITEMAN AFB   CLOUDY    42  42 100 E12       29.92F
CLINTON        CLOUDY    45  45 100 SE9       29.91F FOG
SEDALIA        LGT RAIN  43  42  97 E13       29.96F FOG
WARSAW         NOT AVBL
CHILLICOTHE      N/A     34  33  96 VRB6      30.02F WCI  29
KIRKSVILLE     FRZ RAIN  33  32  96 E12       30.06F FOG     WCI  24

$$

MOZ041-047>049-056>058-063>065-088>090-097-161400-
...EASTERN AND SOUTHERN MISSOURI...

CITY           SKY/WX    TMP DP  RH WIND       PRES   REMARKS
ST. LOUIS INTL FOG       40  38  93 E9        30.12F VSB 1/2 WCI  34
SPIRIT OF STL  CLOUDY    40  40 100 E7        30.12F FOG
COLUMBIA       LGT RAIN  39  39 100 E13       30.02F WCI  31
JEFFERSON CITY LGT RAIN  41  40  96 E8        30.04F
ROLLA          LGT RAIN  39  39 100 SE8       30.03F VSB 1   WCI  33
OSAGE BEACH    LGT RAIN  46  46 100 E6        30.00F
SPRINGFIELD    CLOUDY    49  48  97 SE22G28   29.92F
BRANSON        FOG       43  43 100 SE13      29.98F VSB 1/16
JOPLIN         PTCLDY    52  51  97 SE18      29.86R
WEST PLAINS    LGT RAIN  44  44 100 SE7       30.07F VSB 1/2

$$

IAZ060-094-KSZ022-034>040-054-083-096-NEZ052-066-093-161400-
...KANSAS...SOUTHEAST NEBRASKA AND IOWA...

CITY           SKY/WX    TMP DP  RH WIND       PRES   REMARKS
TOPEKA         CLOUDY    36  33  89 E12       29.88F FOG     WCI  28
MANHATTAN      LGT RAIN  34  33  96 NE10      29.85F FOG     WCI  26
EMPORIA        LGT RAIN  41  41 100 E9        29.81S FOG
CHANUTE        CLOUDY    51  50  96 SE9       29.83R
WICHITA        CLOUDY    42  42 100 CALM      29.74F
OMAHA          CLOUDY    33  29  85 NE14      30.01F FOG     WCI  23
LINCOLN        FRZ RAIN  32  31  96 NE12      29.98F FOG     WCI  23
FALLS CITY     RAIN      33  32  96 NE10      29.94F FOG     WCI  25
LAMONI         MIX PCPN  32  31  96 E12G17    30.02F FOG     WCI  23
DES MOINES     FRZ RAIN  32  31  96 E9        30.08F FOG     WCI  24

$$





USA.gov is the U.S. government's official web portal to all federal, state and local government web resources and services.